FW6924 Weather Reports


Display with metric or nautical units.
time (UTC)temp
F
wind
direction
speed
MPH
gust
MPH
rain 1hr
in
rain 24hr
in
rain mn
in
humidity
%
barometer
mb
20260902155001 88 85 1.0 4.0 0.00 0.05 0.01 74 1014.4
20260902154021 88 94 1.0 4.0 0.00 0.05 0.01 75 1014.4
20260902153001 85 86 0.0 4.0 0.00 0.05 0.01 78 1014.4
20260902152021 84 19 1.0 5.0 0.00 0.05 0.01 79 1014.5
20260902151001 84 5 0.0 3.0 0.00 0.05 0.01 80 1014.7
20260902150005 85 13 1.0 5.0 0.00 0.05 0.01 79 1014.7
20260902145001 85 39 0.0 4.0 0.00 0.05 0.01 82 1014.6
20260902144003 85 56 1.0 6.0 0.00 0.05 0.01 83 1014.7
20260902143001 84 81 1.0 5.0 0.00 0.05 0.01 82 1014.6
20260902142003 84 59 1.0 5.0 0.00 0.05 0.01 83 1014.4
20260902140006 83 81 2.0 5.0 0.00 0.05 0.01 85 1014.4
20260902135001 83 63 0.0 3.0 0.00 0.05 0.01 85 1014.4
20260902133000 82 57 0.0 4.0 0.00 0.05 0.01 88 1014.5
20260902132023 82 61 0.0 4.0 0.00 0.05 0.01 88 1014.5
20260902131000 81 87 1.0 3.0 0.00 0.05 0.01 90 1014.4
20260902130005 80 32 1.0 3.0 0.00 0.05 0.01 91 1014.3
20260902125001 79 64 0.0 3.0 0.00 0.05 0.01 92 1014.2
20260902124002 79 66 0.0 3.0 0.00 0.05 0.01 94 1014.3
20260902122002 77 57 0.0 2.0 0.00 0.05 0.01 96 1014.3
20260902115001 75 5 0.0 0.0 0.00 0.05 0.01 96 1014.3
20260902114003 75 5 0.0 0.0 0.01 0.05 0.01 95 1014.2
20260902113000 75 5 0.0 0.0 0.01 0.05 0.01 95 1014.1
20260902111001 75 5 0.0 0.0 0.01 0.05 0.01 95 1013.9
20260902110007 75 13 0.0 0.0 0.01 0.05 0.01 95 1013.9
20260902104002 75 9 0.0 0.0 0.00 0.04 0.00 95 1013.8
20260902103001 75 9 0.0 0.0 0.00 0.04 0.00 95 1013.6
20260902102003 75 360 0.0 0.0 0.00 0.04 0.00 95 1013.5
20260902101000 75 5 0.0 0.0 0.00 0.04 0.00 95 1013.5
20260902095002 75 5 0.0 0.0 0.00 0.05 0.00 95 1013.4
20260902094000 75 5 0.0 0.0 0.00 0.05 0.00 95 1013.3
20260902093002 75 5 0.0 0.0 0.00 0.05 0.00 95 1013.3
20260902092003 75 5 0.0 0.0 0.00 0.05 0.00 95 1013.4
20260902090003 75 5 0.0 0.0 0.00 0.05 0.00 95 1013.3
20260902085001 75 5 0.0 0.0 0.00 0.05 0.00 95 1013.2
20260902084001 75 5 0.0 0.0 0.00 0.05 0.00 94 1013.3
20260902082003 75 5 0.0 0.0 0.00 0.05 0.00 94 1013.3
20260902080004 75 5 0.0 0.0 0.00 0.05 0.00 94 1013.3
20260902075003 75 5 0.0 0.0 0.00 0.05 0.00 94 1013.2
20260902074000 75 5 0.0 0.0 0.00 0.05 0.00 94 1013.2
20260902071002 76 5 0.0 0.0 0.00 0.05 0.00 94 1013.2
20260902070003 76 5 0.0 0.0 0.00 0.05 0.00 94 1013.2
20260902064000 76 5 0.0 0.0 0.00 0.05 0.00 94 1013.5
20260902063000 76 5 0.0 0.0 0.00 0.05 0.00 94 1013.5
20260902062003 76 5 0.0 0.0 0.00 0.05 0.00 94 1013.5
20260902061000 76 5 0.0 0.0 0.00 0.05 0.00 94 1013.5
20260902055000 76 9 0.0 0.0 0.00 0.05 0.00 94 1013.7
20260902054002 76 360 0.0 3.0 0.00 0.05 0.00 94 1013.7
20260902053000 76 9 0.0 0.0 0.00 0.05 0.00 94 1013.8
20260902051000 76 355 2.0 4.0 0.00 0.05 0.00 94 1013.9
20260902050008 76 5 1.0 5.0 0.00 0.05 0.00 94 1014.0
20260902045002 76 348 2.0 5.0 0.00 0.05 0.00 94 1014.0
20260902044004 76 360 1.0 3.0 0.00 0.05 0.00 94 1014.1
20260902043002 76 347 2.0 4.0 0.00 0.05 0.00 94 1014.1
20260902042004 76 360 1.0 4.0 0.00 0.05 0.00 94 1014.2
20260902041002 76 355 1.0 4.0 0.00 0.05 0.00 94 1014.2
20260902040008 76 17 0.0 0.0 0.00 0.05 0.00 94 1014.2
20260902034004 76 319 0.0 0.0 0.00 0.05 0.05 93 1014.3
20260902033002 76 347 0.0 0.0 0.00 0.05 0.05 93 1014.4
20260902032004 77 99 0.0 0.0 0.00 0.05 0.05 93 1014.4
20260902031002 77 99 0.0 0.0 0.00 0.05 0.05 93 1014.6
20260902030006 77 99 0.0 0.0 0.00 0.05 0.05 93 1014.7
20260902025002 77 99 0.0 0.0 0.00 0.05 0.05 93 1014.7
20260902024004 77 99 0.0 0.0 0.00 0.05 0.05 93 1014.6
20260902023002 77 99 0.0 0.0 0.00 0.05 0.05 93 1014.6
20260902022004 77 99 0.0 0.0 0.00 0.05 0.05 93 1014.6
20260902020007 77 99 0.0 0.0 0.00 0.05 0.05 93 1014.4
20260902014004 77 99 0.0 0.0 0.00 0.05 0.05 93 1014.3
20260902013002 77 99 0.0 0.0 0.00 0.05 0.05 92 1014.3
20260902012004 78 99 0.0 0.0 0.00 0.05 0.05 92 1014.2
20260902011002 78 99 0.0 0.0 0.00 0.05 0.05 93 1014.2
20260902010006 78 99 0.0 0.0 0.00 0.05 0.05 92 1014.2
20260902005002 78 99 0.0 0.0 0.00 0.08 0.05 92 1014.2
20260902004002 78 99 0.0 0.0 0.00 0.08 0.05 92 1014.2
20260902003002 78 99 0.0 0.0 0.01 0.08 0.05 92 1014.2
20260902002002 78 99 0.0 0.0 0.02 0.08 0.05 92 1014.4
20260902001002 78 99 0.0 0.0 0.02 0.08 0.05 92 1014.4
20260902000005 78 99 0.0 0.0 0.02 0.08 0.05 92 1014.2
20260901235004 78 99 1.0 3.0 0.03 0.09 0.05 92 1014.3
20260901234002 78 94 2.0 4.0 0.03 0.09 0.05 91 1014.3
20260901233004 79 105 0.0 6.0 0.03 0.08 0.04 90 1014.3
20260901232002 79 124 0.0 0.0 0.02 0.07 0.03 90 1014.3
20260901230005 79 116 1.0 4.0 0.01 0.06 0.02 89 1014.2
20260901225002 80 104 0.0 4.0 0.01 0.08 0.02 88 1013.8
20260901224002 80 96 0.0 1.0 0.00 0.07 0.01 88 1013.6
20260901223002 81 98 0.0 4.0 0.00 0.07 0.01 86 1013.3
20260901222002 81 69 0.0 3.0 0.00 0.07 0.01 85 1013.4
20260901221002 81 65 0.0 4.0 0.00 0.07 0.01 84 1013.7
20260901214003 81 105 1.0 4.0 0.00 0.08 0.01 82 1013.8
20260901213001 81 85 0.0 1.0 0.00 0.08 0.01 83 1013.6
20260901212004 81 73 0.0 3.0 0.00 0.08 0.01 82 1013.6
20260901210024 81 42 1.0 6.0 0.00 0.08 0.01 81 1013.5
20260901205001 82 266 2.0 6.0 0.00 0.08 0.01 79 1013.3
20260901203001 82 344 4.0 13.0 0.00 0.08 0.01 80 1012.6
20260901201001 83 333 5.0 13.0 0.00 0.08 0.01 77 1012.8
20260901200004 87 62 5.0 14.0 0.00 0.08 0.01 76 1013.1
20260901194001 86 109 6.0 12.0 0.00 0.08 0.01 75 1012.9
20260901193003 86 119 7.0 14.0 0.00 0.08 0.01 75 1012.9
20260901192001 87 106 9.0 17.0 0.00 0.08 0.01 72 1013.2
20260901191003 93 106 2.0 12.0 0.00 0.08 0.01 65 1013.3
20260901185001 92 228 2.0 6.0 0.00 0.08 0.01 65 1013.2
20260901184001 92 275 3.0 8.0 0.00 0.08 0.01 60 1013.5
20260901183000 92 67 2.0 6.0 0.00 0.08 0.01 64 1013.6
20260901182003 92 304 2.0 5.0 0.00 0.08 0.01 63 1013.8
20260901181000 92 24 2.0 5.0 0.00 0.08 0.01 66 1013.9
20260901180005 91 344 2.0 8.0 0.00 0.08 0.01 63 1014.0
20260901175001 91 334 2.0 9.0 0.00 0.08 0.01 66 1013.9
20260901173000 91 67 2.0 9.0 0.00 0.08 0.01 69 1014.2
20260901171001 90 120 1.0 4.0 0.00 0.08 0.01 69 1014.4
20260901170005 89 342 2.0 8.0 0.00 0.08 0.01 71 1014.5
20260901165001 90 15 2.0 8.0 0.00 0.08 0.01 71 1014.6
20260901164003 89 322 2.0 8.0 0.00 0.08 0.01 69 1014.7
20260901163001 88 349 1.0 4.0 0.00 0.08 0.01 71 1014.9
20260901162003 88 315 1.0 5.0 0.00 0.08 0.01 73 1015.0
20260901161000 88 292 1.0 4.0 0.00 0.08 0.01 74 1015.1
20260901160005 88 346 2.0 5.0 0.00 0.08 0.01 73 1015.3